Regional Weather Roundup
Issued by NWS

Home | Current Version | Previous Version | Graphics & Text | Print | Product List | Glossary On
Versions: 1 2 3 4 5 6 7 8 9 10 11 12 13 14 15 16 17 18 19 20 21 22 23 24 25 26 27 28 29 30 31 32 33 34 35 36 37 38 39 40 41 42 43 44 45 46 47 48 49 50
000
ASUS45 KBOI 260210
RWRID

IDAHO REGIONAL WEATHER ROUNDUP
NATIONAL WEATHER SERVICE BOISE ID
800 PM MDT MON MAY 25 2015

NOTE: "FAIR" INDICATES FEW OR NO CLOUDS BELOW 12000 FEET
WITH NO SIGNIFICANT WEATHER AND/OR OBSTRUCTIONS TO VISIBILITY

IDZ012-014-260300-
SOUTHWEST IDAHO


CITY           SKY/WX    TMP DP  RH WIND       PRES   REMARKS
BOISE          CLOUDY    68  48  48 NE3       29.85R
CALDWELL       CLOUDY    64  48  55 E5        29.86R
$$

IDZ016-017-260300-
SOUTHCENTRAL IDAHO


CITY           SKY/WX    TMP DP  RH WIND       PRES   REMARKS
BURLEY         MOCLDY    63  46  54 SW6       29.89S
JEROME         MOCLDY    62  48  60 S13       29.91R
TWIN FALLS     MOCLDY    63  46  54 S14       29.89R
$$

IDZ019>023-260300-
SOUTHEAST IDAHO


CITY           SKY/WX    TMP DP  RH WIND       PRES   REMARKS
IDAHO FALLS    LGT RAIN  60  47  61 S10       29.93R
POCATELLO      TSTM      55  46  71 S14G21    29.94R
REXBURG        CLOUDY    60  39  45 SW13      29.92R
$$

IDZ006-010-011-018-031-032-260300-
CENTRAL IDAHO MOUNTAINS


CITY           SKY/WX    TMP DP  RH WIND       PRES   REMARKS
MCCALL         PTSUNNY   57  41  55 NE13      29.91R
HAILEY         CLOUDY    59  45  58 CALM      29.94R
STANLEY          N/A     48  40  73 S8        29.99R
SALMON         CLOUDY    55  48  76 NW7       29.89R
CHALLIS        CLOUDY    61  38  42 NW12      29.87R
$$

IDZ002-004-006-007-026-260300-
NORTHERN IDAHO


CITY           SKY/WX    TMP DP  RH WIND       PRES   REMARKS
LEWISTON       MOSUNNY   72  47  40 N6        29.84S
LOWELL           N/A     61  56  83 CALM      29.88F
COEUR D`ALENE  CLOUDY    61  52  72 CALM      29.85F
MULLAN PASS    PTSUNNY   46  44  93 VRB3      29.97S
$$


USA.gov is the U.S. government's official web portal to all federal, state and local government web resources and services.